Lapse_Rate
8.8 8.7 6.7 6.3 6.8 6.9 3.3 2.0 1.5 1.5 2.0 3.0 3.9 4.0 3.8 5.6 4.8 3.1 2.6 1.8 2.2 2.8 3.3 4.0 3.9 4.6 4.4 3.9 3.9 5.1 6.6 9.3 5.7 9.0 8.2 9.4 9.7 9.7 9.0 10.1 10.2 9.9 9.6
8.6 8.6 8.3 8.1 7.3 6.7 6.1 4.0 3.2 2.7 3.2 3.3 3.6 4.6 4.9 5.2 4.8 3.7 2.8 2.5 2.3 2.4 2.7 3.1 3.8 3.6 5.0 3.9 3.6 3.9 5.5 9.4 9.0 6.9 8.9 8.4 8.9 9.5 7.3 9.7 9.9 8.9 9.1
8.4 8.5 8.6 8.1 7.0 6.1 6.4 6.8 6.1 6.1 6.0 5.2 5.2 4.8 4.6 5.3 6.0 5.5 4.5 3.0 2.7 2.5 2.5 2.7 3.0 3.6 4.0 4.3 3.9 3.7 4.2 8.2 9.5 8.8 7.8 8.3 8.1 8.5 9.4 9.3 9.7 8.3 9.0
8.6 8.7 8.6 8.6 8.4 6.0 5.6 5.8 5.7 5.5 5.4 6.0 6.4 7.3 8.8 7.3 5.7 5.0 4.6 3.6 2.8 2.7 2.7 2.8 3.2 3.6 4.2 4.1 5.0 4.8 5.8 6.2 9.1 9.5 9.7 9.4 8.5 8.5 8.3 9.2 9.5 9.6 9.7
8.5 8.4 8.6 8.9 8.8 5.8 5.1 4.8 4.7 4.9 4.7 4.8 5.3 5.9 5.4 5.4 5.3 5.1 4.5 4.0 3.4 2.9 2.8 2.9 3.0 3.5 4.1 3.9 4.1 4.6 5.2 8.7 8.9 9.3 9.4 9.3 9.5 9.3 8.9 8.4 8.7 9.2 9.7
8.6 8.8 9.0 9.0 9.0 7.3 5.7 5.1 5.0 4.9 4.7 4.8 4.5 4.3 4.5 4.9 5.5 5.5 5.9 5.8 5.6 4.6 3.2 3.2 3.3 3.2 3.7 4.2 4.7 4.7 4.8 5.4 6.7 8.1 9.5 9.4 9.1 9.1 9.0 8.6 8.7 8.9 9.3
8.6 8.7 8.7 8.9 8.9 8.1 6.5 6.1 6.4 5.5 5.2 4.9 4.5 4.4 4.5 4.9 5.3 6.6 7.1 7.8 6.5 5.1 3.8 3.5 3.3 3.7 3.6 4.0 4.4 5.0 6.0 6.1 6.8 6.9 9.2 9.7 9.6 9.7 9.5 9.1 8.8 8.9 9.1
8.5 8.7 8.8 8.8 8.9 8.9 8.8 8.4 7.8 5.6 5.7 5.4 5.1 5.4 5.9 6.7 6.1 6.0 6.5 6.1 5.1 4.4 3.3 3.4 3.5 3.8 4.0 4.2 4.6 5.9 5.7 5.6 6.1 6.3 7.2 8.8 9.8 9.8 9.5 8.6 8.3 8.1 8.9
8.3 8.6 8.8 8.9 9.0 9.0 9.1 8.9 8.2 7.3 6.9 6.1 5.7 5.5 5.7 5.7 5.2 4.9 5.2 5.0 4.6 4.4 3.8 3.8 4.2 4.3 4.2 4.0 4.7 5.7 4.9 5.6 6.0 6.9 4.8 5.1 6.4 6.6 8.0 8.7 8.6 7.9 7.7
8.4 8.8 8.9 8.9 9.1 9.1 9.3 8.9 9.1 8.5 7.2 6.4 6.3 6.3 5.9 5.7 5.3 5.2 4.7 4.6 4.2 4.3 4.2 4.4 4.6 4.7 4.5 4.3 5.0 6.9 5.4 5.8 5.5 5.5 4.9 5.6 6.9 7.2 8.1 9.0 9.0 8.9 8.5
8.2 8.7 8.9 9.0 9.2 9.3 9.3 9.0 9.2 8.5 7.7 7.5 6.6 6.1 5.7 5.3 5.3 5.0 4.7 4.4 4.1 4.3 4.6 4.8 5.2 5.5 5.2 5.0 5.8 6.1 5.3 5.3 5.7 5.7 5.8 6.3 7.0 8.3 9.1 9.3 9.3 9.0 9.0
8.4 8.5 8.9 9.0 9.2 9.2 9.2 9.2 9.4 9.1 8.2 7.2 6.4 5.6 5.3 5.4 5.2 4.8 4.7 4.0 4.5 4.3 4.8 5.1 5.7 5.5 5.5 5.4 5.5 5.6 6.0 6.9 8.2 7.6 8.7 9.2 8.5 9.0 9.1 9.3 9.0 9.1 9.3
8.4 8.7 8.9 8.9 9.0 9.1 9.2 9.4 9.4 9.4 8.9 8.2 6.7 6.0 5.9 5.9 5.6 5.2 4.9 4.7 4.9 4.9 5.1 5.3 5.9 5.7 5.4 5.5 5.5 5.8 6.3 7.8 9.1 9.2 9.5 9.4 8.9 9.1 9.2 8.9 9.2 9.2 9.2
8.4 8.6 8.7 8.9 9.0 9.1 9.2 9.3 9.4 9.6 9.4 9.1 8.9 7.1 6.6 6.4 6.0 5.5 5.4 5.3 5.4 5.9 5.7 5.5 5.7 5.7 5.4 4.8 4.7 5.6 6.3 7.6 8.2 7.9 9.5 9.6 8.7 7.7 6.9 8.5 8.6 8.9 8.8
8.3 8.4 8.6 8.7 8.9 9.0 9.1 9.3 9.4 9.5 9.6 9.4 9.4 7.4 6.5 6.1 5.7 5.5 5.4 5.3 5.6 5.6 5.4 5.7 5.8 5.9 5.2 2.9 2.6 4.4 6.5 6.9 7.5 9.2 9.7 9.0 5.4 4.7 4.3 5.4 5.6 6.8 7.6
8.2 8.4 8.7 8.7 8.8 8.9 9.0 9.2 9.3 9.4 9.5 9.3 9.0 6.9 6.3 6.1 5.8 5.7 5.6 5.4 5.4 5.5 5.8 6.1 6.1 6.2 5.2 0.6 0.4 1.2 7.0 8.0 8.0 8.8 8.8 9.5 9.2 5.7 4.1 3.4 4.0 5.1 7.9
8.7 8.5 8.6 8.8 8.9 9.0 9.0 9.0 9.0 8.9 9.2 9.1 8.2 6.7 6.6 6.5 6.0 6.0 6.0 5.8 5.7 5.9 6.0 6.0 6.1 5.9 4.6 0.6 0.4 0.5 6.5 8.0 8.9 8.5 8.7 8.6 9.5 8.3 4.5 4.4 5.8 8.5 7.7
8.4 8.8 9.4 9.1 9.0 9.1 9.2 9.1 9.0 8.5 9.0 9.1 8.2 7.1 6.7 6.5 6.2 6.4 6.3 5.8 6.3 6.8 6.6 5.8 5.8 5.8 3.8 0.5 0.5 0.2 6.2 8.4 8.6 7.6 8.1 6.8 6.9 6.1 3.4 4.6 7.6 9.3 9.2
8.8 9.1 9.3 9.0 9.0 9.1 9.1 9.2 9.1 9.2 9.1 8.7 7.7 6.7 6.5 6.5 6.5 6.7 6.4 6.6 6.9 6.9 6.5 6.2 5.8 5.7 4.8 0.6 0.4 1.5 6.2 6.9 6.9 7.3 7.2 5.7 5.8 3.1 2.7 4.7 6.9 7.6 7.4
8.7 8.7 9.2 9.3 9.3 9.3 9.4 8.9 8.7 8.3 8.7 7.9 6.9 6.7 6.7 7.2 7.1 6.7 6.2 6.3 6.9 6.7 7.5 6.2 5.5 1.3 5.4 -0.1 1.0 0.9 5.9 6.1 6.4 6.8 6.6 4.3 3.3 2.5 2.7 4.6 8.9 6.0 4.9
8.2 8.9 9.3 9.2 8.5 9.3 7.8 8.0 7.2 6.7 8.3 7.4 6.6 6.7 7.3 7.3 6.9 6.3 6.3 6.4 6.7 6.8 6.6 6.5 5.7 5.6 3.9 3.7 1.0 1.1 4.7 4.5 5.9 6.6 5.9 5.9 2.6 2.4 2.8 3.5 6.9 5.4 4.2
8.6 8.9 9.4 9.2 8.3 5.4 6.2 7.7 6.5 8.0 8.0 6.9 6.6 6.8 7.3 7.4 6.8 6.5 6.2 6.4 7.0 7.0 6.8 6.9 6.3 6.0 6.0 1.2 1.9 1.5 1.4 1.6 5.5 6.1 5.6 4.3 2.2 2.5 3.1 4.1 3.3 4.3 7.4
9.0 9.1 9.2 9.0 8.7 6.5 6.6 6.3 7.6 8.0 6.6 6.5 7.1 7.5 6.9 6.7 7.0 7.2 6.8 7.2 7.4 8.3 7.1 7.3 7.1 6.4 5.8 5.7 2.7 2.6 2.5 2.7 4.3 4.4 3.2 2.7 2.7 3.2 3.9 3.7 3.8 6.1 8.0
9.0 9.0 9.2 8.9 8.6 7.1 7.4 6.7 7.5 6.5 6.4 6.7 8.5 7.9 6.6 6.4 7.1 8.4 8.0 8.1 7.9 7.2 7.5 7.5 7.2 6.2 6.1 5.1 4.3 4.7 4.9 3.9 4.7 2.9 4.8 3.3 2.7 3.6 5.7 8.4 8.8 9.5 9.2
9.0 9.6 9.6 9.3 9.0 7.5 7.8 7.3 6.5 6.8 6.8 8.5 8.8 7.5 7.5 7.7 7.7 8.0 7.8 8.1 5.9 5.1 6.6 5.6 5.6 5.5 5.1 2.6 0.3 0.7 2.8 2.1 2.1 1.5 4.7 4.8 5.2 7.5 8.2 9.1 9.5 9.6 9.5
9.1 9.3 8.9 8.8 8.9 8.7 8.4 8.4 6.8 6.4 7.0 8.3 8.8 8.8 7.0 8.6 8.2 5.4 4.0 -0.6 0.5 -0.1 -0.5 -0.4 1.9 3.2 0.2 -0.6 -0.4 -0.1 0.2 0.2 0.6 5.0 5.3 5.0 5.8 7.7 9.0 9.0 8.7 8.9 8.8
Wind_Speed
9 8 7 7 8 10 11 10 10 9 7 6 8 6 7 6 7 12 13 13 13 13 11 10 10 9 8 9 10 8 8 6 10 7 9 8 8 6 9 7 8 8 17
11 9 8 8 8 9 11 11 9 8 7 6 6 5 6 7 8 11 13 14 14 13 13 11 9 10 6 9 10 10 7 6 9 8 8 5 8 4 12 5 8 13 16
14 12 10 10 10 10 9 9 10 9 8 10 8 7 8 7 6 6 7 12 13 13 13 12 11 9 9 7 9 10 10 7 6 9 6 5 5 12 4 9 8 13 12
14 13 12 11 11 10 10 11 10 10 8 6 6 6 6 7 6 6 6 10 12 12 12 12 11 10 9 8 8 8 8 8 7 5 6 4 4 5 8 6 13 12 14
15 14 13 12 11 11 10 10 11 10 9 9 8 7 8 7 6 6 7 7 9 11 11 10 10 9 9 9 9 9 9 6 7 6 6 6 6 5 8 12 12 13 12
17 15 14 13 12 11 11 11 11 11 10 10 10 10 9 8 6 5 5 5 5 7 10 11 10 12 11 10 9 10 10 9 8 7 7 6 7 8 6 11 14 16 12
20 18 18 16 14 14 13 12 12 12 11 10 10 10 9 9 8 6 5 5 5 5 8 10 11 10 10 9 9 8 8 8 7 8 7 7 7 7 8 10 13 14 15
21 21 20 17 17 15 14 13 13 13 11 11 10 9 8 6 6 5 5 5 6 6 8 9 9 9 9 10 9 8 7 8 7 9 9 7 7 8 8 8 11 15 11
22 22 20 18 17 16 15 15 14 13 12 11 9 8 7 7 7 7 6 6 7 7 8 8 8 9 11 11 10 7 9 8 8 9 10 8 8 8 8 9 9 9 13
25 23 20 19 17 16 15 15 14 14 12 11 9 8 8 7 7 7 8 8 8 7 8 7 8 9 11 11 11 7 9 8 7 7 9 9 8 9 8 9 9 10 11
28 25 22 19 18 17 16 15 14 14 12 10 10 9 8 7 7 7 7 7 8 8 7 7 7 8 9 10 8 8 9 9 8 9 9 10 10 8 8 9 10 11 11
28 25 24 22 20 18 17 16 15 14 12 11 10 9 8 8 7 7 7 8 7 7 7 7 7 8 8 9 8 8 8 9 9 9 8 9 8 11 10 10 12 12 13
27 25 24 23 21 19 18 16 15 14 13 12 11 10 9 8 8 8 7 9 8 8 8 7 6 7 7 8 8 8 8 8 8 9 9 10 10 11 11 12 12 12 12
29 26 24 23 22 20 19 17 16 15 14 13 12 11 10 9 9 8 8 8 8 7 7 7 6 6 8 10 10 8 7 8 8 8 9 9 11 13 13 13 15 14 14
29 28 26 24 23 21 19 18 17 16 15 14 12 11 11 10 9 9 8 8 7 7 7 6 5 5 8 10 12 9 7 8 9 8 9 10 10 13 13 12 15 17 13
31 29 28 27 25 23 21 19 18 17 15 14 13 12 12 11 10 9 9 8 8 7 5 5 4 5 6 12 15 12 7 7 8 9 10 12 11 16 17 22 22 16 14
30 31 30 27 24 23 22 21 19 17 16 14 14 13 12 12 11 10 9 8 7 7 6 5 4 5 7 13 16 17 5 6 8 9 10 11 11 14 18 21 19 15 13
30 28 25 25 25 24 22 20 20 19 17 16 15 14 13 12 11 10 9 8 7 6 5 4 3 4 7 13 16 22 6 6 7 8 9 11 13 15 18 18 17 16 17
28 26 24 24 25 25 23 22 21 19 17 17 15 14 13 12 11 10 9 8 7 6 5 4 4 4 6 13 16 17 7 8 9 8 10 11 14 23 26 17 18 18 16
21 24 27 25 25 24 23 23 21 19 18 17 16 14 13 12 12 10 9 7 6 6 5 5 5 3 5 12 14 16 6 8 8 9 10 8 16 23 23 16 16 17 18
24 24 26 25 26 24 23 23 21 20 18 16 15 15 13 12 11 10 8 7 6 6 5 5 5 4 4 7 10 12 7 7 7 7 8 9 21 23 22 19 14 17 18
26 27 25 24 25 25 23 24 22 19 18 17 16 15 14 10 10 11 9 8 7 6 5 4 4 3 3 4 7 7 7 10 7 7 7 10 21 21 18 14 18 20 12
23 25 25 25 23 25 23 22 21 21 20 19 17 16 15 12 11 10 9 7 6 5 4 3 3 3 2 3 3 1 3 6 6 7 9 12 16 15 14 18 18 13 12
22 25 27 26 26 25 23 22 23 22 21 20 18 16 14 13 11 8 7 6 5 4 4 3 3 2 3 5 6 7 8 9 7 10 8 10 11 9 8 10 12 12 13
22 23 24 24 26 26 24 24 24 23 21 19 17 16 12 13 11 8 5 6 5 4 4 4 2 2 3 5 7 7 7 8 9 11 7 8 9 10 11 11 12 12 13
21 22 25 26 26 26 25 24 24 24 21 19 15 13 12 11 10 9 8 17 13 11 12 8 6 5 7 6 8 8 8 11 14 5 6 8 9 10 11 12 13 13 15
Wind_Direction
131 120 111 115 123 125 117 112 110 126 127 130 117 108 100 100 89 77 63 53 49 45 38 44 34 26 32 21 12 359 358 358 358 321 330 299 275 335 2 336 316 5 340
150 137 128 121 115 124 126 126 120 124 116 107 102 101 101 89 86 78 66 57 54 47 49 40 41 28 32 29 22 15 358 9 23 353 302 333 312 82 328 325 330 7 331
161 153 143 131 124 119 124 126 128 125 114 118 122 115 113 112 101 85 71 57 56 52 47 45 41 36 32 31 23 16 19 359 21 39 8 338 344 334 42 328 11 330 346
169 160 152 145 132 121 118 119 119 119 119 129 127 126 112 109 92 89 82 73 56 52 48 44 39 37 36 30 26 26 16 9 17 6 17 24 326 332 322 334 323 353 332
175 167 161 148 136 131 121 116 114 111 110 109 114 115 112 113 108 101 94 82 70 54 51 45 44 41 41 38 32 29 24 27 13 4 359 351 322 327 314 304 329 324 329
178 172 161 152 145 136 130 127 122 116 110 107 105 106 111 108 107 98 93 79 68 60 48 50 49 43 40 35 34 29 29 23 18 1 356 354 349 335 327 309 315 315 323
178 174 168 167 158 154 147 142 136 125 117 113 106 106 104 105 107 101 87 95 80 62 53 50 47 46 43 39 30 29 27 21 14 9 356 351 342 334 326 322 316 317 316
180 179 175 168 165 162 159 149 145 133 130 125 122 122 125 111 102 87 98 87 77 67 60 60 58 54 44 31 28 35 22 16 12 11 6 344 349 345 340 323 319 316 314
181 181 175 171 167 165 164 160 151 144 141 134 128 123 121 114 107 108 100 89 88 90 72 65 63 54 41 32 27 31 19 14 13 13 8 356 350 342 333 327 322 315 313
178 180 177 173 170 168 164 160 159 152 147 142 137 129 124 117 114 107 100 99 96 85 78 71 64 53 41 33 27 24 24 21 22 15 4 354 347 336 330 324 323 317 309
179 177 175 171 170 168 165 164 163 154 152 149 137 137 127 121 116 111 106 99 96 86 77 75 69 53 46 36 32 29 30 23 19 14 4 351 343 341 337 328 324 317 313
179 174 171 169 170 169 167 168 163 161 154 149 144 136 131 130 121 113 108 105 103 97 89 87 76 55 47 38 30 30 22 18 15 12 359 356 353 343 339 334 327 322 317
177 175 171 171 170 170 169 167 167 162 158 156 151 148 146 138 132 128 121 121 116 111 98 87 76 57 41 30 24 26 20 13 10 4 357 358 350 349 344 338 334 327 321
182 176 174 171 172 170 170 168 167 164 164 162 161 154 151 146 138 130 128 125 120 112 101 88 88 65 49 29 15 13 15 8 10 359 351 356 354 354 344 338 331 327 323
182 180 177 173 171 171 170 169 168 168 168 166 161 155 151 144 140 139 133 129 123 110 101 101 93 78 53 29 9 357 7 2 1 355 356 1 344 4 346 339 331 328 324
186 181 180 173 173 172 171 170 169 170 169 166 161 157 156 151 148 146 143 136 128 112 107 110 104 81 64 11 9 354 350 356 355 349 353 350 347 346 355 330 320 304 320
186 184 183 177 171 173 171 171 170 168 171 167 162 162 160 157 154 152 145 140 132 131 118 117 110 91 58 19 6 343 342 349 353 353 349 348 352 350 345 334 316 319 311
187 185 181 176 175 171 171 167 168 169 170 168 165 164 163 157 155 153 147 143 145 146 133 108 109 88 68 20 4 333 357 353 359 358 356 352 350 7 343 332 333 328 326
188 184 179 171 167 169 170 168 168 169 170 169 167 165 163 161 160 157 153 150 147 144 132 122 101 77 65 26 7 343 358 358 360 357 1 357 352 353 346 336 335 330 329
181 177 176 172 168 169 168 169 169 169 173 170 165 162 164 165 162 154 152 151 146 137 146 119 97 72 72 48 10 358 357 355 352 358 359 25 9 345 345 340 338 337 338
176 176 176 174 169 162 167 170 167 173 169 164 160 160 166 163 157 151 154 154 149 149 141 120 101 90 57 70 19 12 353 359 344 354 351 349 354 339 337 336 346 330 315
173 176 174 171 164 165 168 167 170 166 161 160 159 162 163 161 159 157 155 156 158 148 139 122 109 101 83 84 43 19 2 347 340 356 350 344 335 331 328 340 330 320 319
176 172 174 170 169 168 169 165 165 161 160 159 162 162 160 163 160 162 159 157 159 153 132 128 118 107 64 40 116 93 335 2 336 357 320 314 327 330 343 344 338 334 351
179 176 176 175 171 171 169 164 161 161 161 160 163 161 162 160 162 160 159 155 154 144 141 141 123 99 70 36 12 1 359 4 360 348 350 339 332 329 330 342 351 352 354
178 180 179 176 172 167 164 159 161 162 161 161 162 164 157 167 158 151 140 144 87 49 149 125 106 101 68 42 3 354 358 357 351 322 355 1 356 353 354 353 352 353 353
178 182 178 177 170 164 160 159 163 164 159 161 165 163 163 161 155 144 130 66 90 89 74 51 26 113 65 27 14 9 5 357 330 352 7 4 358 356 354 353 351 355 355